SL-14 DEB, 45357

Orbit data source: Space-Track

SL-14 DEB, 45357 is space debris in LEO originally from a launch on Thu, 15 Aug 1991 UTC launched from the Plesetsk Missile And Space Complex (PKMTR). Debris objects in space refer to the collection of defunct objects orbiting the Earth. Examples of debris include non-operational satellites, rocket bodies, and fragments generated from explosions, collisions, or faulty payload assembly.

Loading next visibility...
Identifier
45357, 1991-056CR
Orbit
LEO
Country
Flag of CISCIS
Related business
Manufacturer
Unknown
Mission
Spacecraft
Bus & Motor
Unknown
Mass
Unknown
Launch date (UTC)
1991-08-15 (34 years ago)
Launch vehicle
Unknown
Launch site
Plesetsk Missile And Space Complex (PKMTR)
Object type
Payload
Rocket body
Debris
Shape & HBR
Unknown shape, 0.1 m
Radar Cross Section
Small (<0.1 m²)

Expand to show TLE details & history
Last TLE update: 1 day ago

TLE from 1 day ago
0 SL-14 DEB
1 45357U 91056CR  25304.89596952  .00001665  00000-0  31453-2 0  9998
2 45357  82.5656 259.5087 0073823 127.5712 233.2157 13.36692278275758
Epoch: 2025-10-31T21:30Z
TLE epoch observation values (Epoch: 2025-10-31T21:30:11.766Z)
Latitude
-0.00004°
Longitude
-103.47416°
Altitude
1,157.882 km
Speed
7.258 km/s
True Right ascension
17h 18m 02s
True Declination
0° 00' 00"
Sunlit
Object was in daylight at epoch
Visualization orbit readout
Latitude
Unknown
Longitude
Unknown
Altitude
Unknown
Speed
Unknown
Apparent Right ascension
Unknown
Apparent Declination
Unknown
Sunlit
N/A
Visualization observer readout
Local Sidereal Time
23:06:11
Azimuth
Unknown
Elevation
Unknown
Doppler factor
Unknown
Orbital elements
Apogee altitude
1,174.188 km
Perigee altitude
1,063.498 km
Semi-major axis
7,496.98 km
Eccentricity
0.00738
Inclination
82.5656°
RAAN
259.5087°
Arg. of periapsis
127.5712°
True anomaly
232.54192°
Mean anomaly
233.2157°
Eccentric anomaly
232.87844°
Mean motion
3.3436 °/min
Orbital period
107.67 mins
BSTAR
0.0031453
Loading maneuver chart data...
Computing Atmospheric mass density...
Loading historical data...
Loading historical data...
Loading historical data...
Loading historical data...
Loading historical data...
Loading historical data...
Loading historical data...

Documentation

Showing up to 5 results
|